DW6536 Weather Reports


Display with metric or nautical units.
time (UTC)temp
F
wind
direction
speed
MPH
gust
MPH
rain 1hr
in
rain 24hr
in
rain mn
in
humidity
%
barometer
mb
20260508180030 75 14 1.0 0.0 0.00 0.00 0.00 72 1010.2
20260508174535 74 148 1.0 0.0 0.00 0.00 0.00 72 1010.4
20260508173024 73 68 1.0 0.0 0.00 0.00 0.00 74 1010.5
20260508171520 71 11 1.0 0.0 0.00 0.00 0.00 77 1010.6
20260508170016 69 93 1.0 0.0 0.00 0.00 0.00 77 1010.9
20260508164512 69 53 0.0 0.0 0.00 0.00 0.00 76 1011.3
20260508163017 68 61 0.0 0.0 0.00 0.00 0.00 76 1011.4
20260508161508 68 321 0.0 0.0 0.00 0.00 0.00 77 1011.5
20260508160004 67 31 0.0 0.0 0.00 0.00 0.00 77 1011.8
20260508154502 66 122 0.0 0.0 0.00 0.00 0.00 78 1012.0
20260508153002 66 151 1.0 0.0 0.00 0.00 0.00 77 1012.1
20260508151500 66 156 1.0 0.0 0.00 0.00 0.00 78 1012.1
20260508150100 66 135 1.0 0.0 0.00 0.00 0.00 77 1012.2
20260508144607 66 218 0.0 0.0 0.00 0.00 0.00 77 1012.0
20260508143100 65 63 1.0 0.0 0.00 0.00 0.00 78 1012.1
20260508141600 64 52 0.0 0.0 0.00 0.00 0.00 80 1011.9
20260508140053 63 153 1.0 0.0 0.00 0.00 0.00 80 1012.1
20260508134559 62 118 0.0 0.0 0.00 0.00 0.00 82 1012.1
20260508133048 62 108 0.0 0.0 0.00 0.00 0.00 82 1012.2
20260508131546 61 131 0.0 0.0 0.00 0.00 0.00 82 1012.7
20260508130044 61 108 0.0 0.0 0.00 0.00 0.00 82 1012.4
20260508124543 61 70 0.0 0.0 0.00 0.00 0.00 82 1012.4
20260508123051 60 70 0.0 0.0 0.00 0.00 0.00 83 1012.6
20260508121544 60 70 0.0 0.0 0.00 0.00 0.00 83 1012.8
20260508120044 60 70 0.0 0.0 0.00 0.00 0.00 84 1012.8
20260508114548 60 35 0.0 0.0 0.00 0.00 0.00 83 1013.1
20260508113045 60 16 0.0 0.0 0.00 0.00 0.00 83 1013.2
20260508111544 60 353 0.0 0.0 0.00 0.00 0.00 84 1013.3
20260508110039 60 35 0.0 0.0 0.00 0.00 0.00 84 1012.7
20260508104541 60 29 0.0 0.0 0.00 0.00 0.00 84 1012.6
20260508103040 60 18 0.0 0.0 0.00 0.00 0.00 83 1012.6
20260508101537 60 16 0.0 0.0 0.00 0.00 0.00 83 1013.1
20260508100036 61 278 0.0 0.0 0.00 0.00 0.00 82 1013.3
20260508094551 61 354 0.0 0.0 0.00 0.00 0.00 80 1013.3
20260508093037 61 357 0.0 0.0 0.00 0.00 0.00 80 1013.3
20260508091540 61 35 0.0 0.0 0.00 0.00 0.00 81 1013.1
20260508090034 60 35 0.0 0.0 0.00 0.00 0.00 80 1012.9
20260508084534 60 35 0.0 0.0 0.00 0.00 0.00 80 1012.7
20260508083034 60 35 0.0 0.0 0.00 0.00 0.00 80 1012.9
20260508081556 60 35 0.0 0.0 0.00 0.00 0.00 81 1012.9
20260508080037 60 35 0.0 0.0 0.00 0.00 0.00 81 1012.9
20260508074530 60 35 0.0 0.0 0.00 0.00 0.00 82 1012.7
20260508073028 60 358 0.0 0.0 0.00 0.00 0.00 82 1012.7
20260508071537 59 358 0.0 0.0 0.00 0.00 0.00 83 1012.7
20260508070022 59 326 0.0 0.0 0.00 0.00 0.00 83 1013.2
20260508064521 59 326 0.0 0.0 0.00 0.00 0.00 84 1013.2
20260508063031 59 326 0.0 0.0 0.00 0.00 0.00 85 1013.7
20260508061519 59 326 0.0 0.0 0.00 0.00 0.00 84 1014.1
20260508060017 59 326 0.0 0.0 0.00 0.00 0.00 83 1013.6
20260508054517 59 326 0.0 0.0 0.00 0.00 0.00 83 1013.6
20260508053016 59 326 0.0 0.0 0.00 0.00 0.00 83 1013.9
20260508051513 59 326 0.0 0.0 0.00 0.00 0.00 83 1013.6
20260508050011 59 327 0.0 0.0 0.00 0.00 0.00 83 1013.5
20260508044511 59 327 0.0 0.0 0.00 0.00 0.00 83 1014.4
20260508043012 59 76 0.0 0.0 0.00 0.00 0.00 83 1013.5
20260508041512 59 99 0.0 0.0 0.00 0.00 0.00 83 1013.6
20260508040010 59 62 0.0 0.0 0.00 0.00 0.00 81 1014.0
20260508034510 60 62 0.0 0.0 0.00 0.00 0.00 81 1014.5
20260508033009 60 62 0.0 0.0 0.00 0.00 0.00 80 1014.4
20260508031509 60 62 0.0 0.0 0.00 0.00 0.00 80 1014.9
20260508030008 60 62 0.0 0.0 0.00 0.00 0.00 78 1014.0
20260508024507 61 37 0.0 0.0 0.00 0.00 0.00 77 1013.6
20260508023008 61 64 0.0 0.0 0.00 0.00 0.00 77 1013.2
20260508021507 61 64 0.0 0.0 0.00 0.00 0.00 76 1012.3
20260508020006 62 99 0.0 0.0 0.00 0.00 0.00 75 1012.6
20260508014508 62 44 1.0 0.0 0.00 0.00 0.00 75 1012.6
20260508013004 62 132 0.0 0.0 0.00 0.00 0.00 74 1012.5
20260508011504 63 88 1.0 0.0 0.00 0.00 0.00 72 1012.3
20260508010002 63 56 1.0 0.0 0.00 0.00 0.00 71 1012.9
20260508004500 63 30 1.0 0.0 0.00 0.00 0.00 70 1013.2
20260508003107 64 116 1.0 0.0 0.00 0.00 0.00 69 1013.0
20260508001604 64 102 1.0 0.0 0.00 0.00 0.00 69 1013.6
20260508000059 65 50 1.0 0.0 0.00 0.00 0.00 68 1014.0
20260507234559 65 19 0.0 0.0 0.00 0.00 0.00 68 1014.2
20260507233100 65 52 1.0 0.0 0.00 0.00 0.00 66 1014.1
20260507231559 66 51 0.0 0.0 0.00 0.00 0.00 69 1014.0
20260507230104 66 36 1.0 0.0 0.00 0.00 0.00 67 1014.1
20260507224600 65 358 1.0 0.0 0.00 0.00 0.00 68 1014.0
20260507223057 65 45 1.0 0.0 0.00 0.00 0.00 67 1014.3
20260507221555 65 48 1.0 0.0 0.00 0.00 0.00 67 1014.3
20260507220055 65 7 2.0 0.0 0.00 0.00 0.00 68 1014.6
20260507214605 65 41 2.0 0.0 0.00 0.00 0.00 69 1014.8
20260507213056 66 1 2.0 0.0 0.00 0.00 0.00 67 1014.9
20260507211553 65 14 1.0 0.0 0.00 0.00 0.00 71 1014.6
20260507210057 64 23 1.0 0.0 0.00 0.00 0.00 70 1014.8
20260507204548 64 44 1.0 0.0 0.00 0.00 0.00 71 1015.0
20260507203103 64 39 1.0 0.0 0.00 0.00 0.00 69 1015.2
20260507201556 64 31 2.0 0.0 0.00 0.00 0.00 70 1015.7
20260507194543 63 49 1.0 0.0 0.00 0.00 0.00 71 1016.0
20260507193047 63 36 2.0 0.0 0.00 0.00 0.00 71 1016.1
20260507191541 63 88 2.0 0.0 0.00 0.00 0.00 72 1016.1
20260507190041 62 52 2.0 0.0 0.00 0.00 0.00 71 1016.2
20260507184546 62 74 2.0 0.0 0.00 0.00 0.00 73 1015.7
20260507183041 62 64 2.0 0.0 0.00 0.00 0.00 72 1016.2
20260507181538 62 62 2.0 0.0 0.00 0.00 0.00 72 1016.2